Location: Dumpton Point
(51.3500°N, 1.4433°E)
Time: 13:23:30
(UTC+00:00)

STPSAT 2 (USA 217) - Pass Details

Date: 09 April 2020
Orbit: 622 x 646 km, 72.0° (Epoch: 16 May)

Event Time Altitude Azimuth Distance (km) Brightness Sun altitude
Rises 20:26:48 0° 197° (SSW) 2,891 7.8 -15.7°
Reaches altitude 10° 20:29:03 10° 195° (SSW) 1,990 6.9 -16.0°
Maximum altitude 20:33:28 64° 114° (ESE) 694 4.5 -16.5°
Drops below altitude 10° 20:37:56 10° 33° (NNE) 2,011 7.2 -17.1°
Sets 20:40:13 0° 31° (NNE) 2,926 8.1 -17.4°
